Current weather by "City, St" or "zip code"  
 

Current Conditions: Wheeling, Wheeling Ohio County Airport, WV

Fair


34.0 F

Last Updated on Apr 23 2021, 5:53 am EDT
Humidity: 70%
Wind Speed: SW 6.9 mph
Barometer 30.10 in
Dewpoint: 25.0 F
Visibility: 10.00 mi
Precip: --
Heat Index: NA
Wind Chill: 28 F
Current conditions at:

Wheeling, Wheeling Ohio County Airport, WV (KHLG)

Lat: 40.17028 Lon: 80.64444

Local Radar Image active severe weather and emergency alerts image image weather storm and storm spotter reports image weather observation monitoring service image
Local
Radar
Active
Alerts
Storm Reports Obs
Monitoring

Sign-up For Email & Text Message Weather Alert Notification Services



Advertise Here

Observation History for Wheeling, Wheeling Ohio County Airport, WV


Time Wind
(mph)
Vis
(mi)
Weather Precip (in) Temperature (F) Relative
Humidity
Wind
Chill
(F)
Heat
Index
(F)
Pressure
Air Dwpt altimeter
(in)
sea level
(mb)
Rmks
5:53 am EDT SW 6.9 10.00 Fair -- 34.0 25.0 70% 28 NA 30.10 1020.3
4:53 am EDT S 4.6 10.00 Fair -- 35.0 25.0 67% 31 NA 30.10 1020.2
3:53 am EDT S 4.6 10.00 Fair -- 36.0 25.0 64% 32 NA 30.09 1020.0
2:53 am EDT SW 6.9 10.00 Fair -- 37.0 26.1 65% 32 NA 30.09 1020.0
1:53 am EDT SW 6.9 10.00 Fair -- 38.0 26.1 62% 33 NA 30.10 1020.2
12:53 am EDT W 6.9 10.00 Fair -- 39.0 25.0 57% 34 NA 30.10 1020.4
11:53 pm EDT W 5.8 10.00 Mostly Cloudy -- 39.0 27.0 62% 35 NA 30.10 1020.3
10:53 pm EDT W 8.1 10.00 Mostly Cloudy -- 41.0 28.0 60% 36 NA 30.10 1020.2
9:53 pm EDT W 8.1 10.00 Overcast -- 42.0 27.0 55% 37 NA 30.09 1020.0
8:53 pm EDT W 8.1 10.00 Overcast -- 42.0 26.1 53% 37 NA 30.07 1019.3
7:53 pm EDT W 11.5 G 23.0 10.00 Overcast -- 43.0 24.1 47% 37 NA 30.05 1018.6
6:53 pm EDT W 12.7 G 19.6 10.00 Overcast -- 44.0 23.0 43% 38 NA 30.03 1018.1
5:53 pm EDT W 18.4 G 28.8 10.00 Overcast -- 45.0 21.0 39% 37 NA 30.03 1017.9
4:53 pm EDT W 17.3 G 24.2 10.00 Overcast -- 46.0 19.9 35% 39 NA 30.02 1017.7
3:53 pm EDT W 15.0 G 24.2 10.00 Overcast -- 45.0 18.0 34% 38 NA 30.03 1018.1
2:53 pm EDT W 10.4 G 20.7 10.00 Overcast -- 44.0 18.0 35% 38 NA 30.05 1018.6
1:53 pm EDT W 17.3 G 27.6 10.00 Mostly Cloudy -- 44.0 18.0 35% 36 NA 30.05 1018.7
12:53 pm EDT W 10.4 10.00 Mostly Cloudy -- 44.0 19.9 38% 38 NA 30.06 1019.1
11:53 am EDT NW 16.1 G 23.0 10.00 Mostly Cloudy -- 41.0 19.0 41% 33 NA 30.07 1019.5
10:53 am EDT W 15.0 G 23.0 10.00 Mostly Cloudy -- 40.0 21.0 47% 32 NA 30.08 1019.7
9:53 am EDT W 9.2 10.00 Partly Cloudy -- 37.0 24.1 59% 30 NA 30.07 1019.7
8:53 am EDT W 8.1 G 17.3 10.00 Mostly Cloudy -- 34.0 28.0 79% 27 NA 30.07 1019.6
7:53 am EDT W 10.4 10.00 Partly Cloudy -- 32.0 28.0 85% 24 NA 30.06 1019.2
6:53 am EDT W 6.9 10.00 Overcast -- 31.0 28.0 89% 24 NA 30.04 1018.4

Regional Weather Observation


Washington - Washington County Airport, PA (KAFJ)

Fair
31.0 F

Pittsburgh, Pittsburgh International Airport, PA (KPIT)

Fair
32.0 F

Beaver County Airport, PA (KBVI)

Fair
34.0 F

New Philadelphia, Harry Clever Field, OH (KPHD)

Fair
28.0 F

Zelienople Municipal Airport, PA (KPJC)

Fog/Mist
27.0 F

Akron Canton Regional Airport, OH (KCAK)

Fair
32.0 F

Advertise Here


Advertise Here